START_TIME,STEP,MOV.,M6,t_acc.,M7,t_acc.,M19,t_acc.,H36,t_acc.
1979-08-07 21:00:25.570 ,0,0,0.,12.0,0.,12.0,0.,12.0,0.,12.0
1979-08-07 21:00:37.570 ,0,0,0.,12.0,0.,12.0,0.,12.0,0.,12.0
1979-08-07 21:00:49.570 ,0,1,0.,12.0,0.,12.0,0.,12.0,0.,12.0
1979-08-07 21:01:01.570 ,0,1,0.,12.0,0.,12.0,0.,12.0,0.,12.0
1979-08-07 21:01:13.570 ,0,0,0.,12.0,0.,12.0,0.,12.0,0.,12.0
1979-08-07 21:01:25.570 ,0,0,0.,12.0,0.,12.0,0.,12.0,0.,12.0
1979-08-07 21:01:37.560 ,1,1,0.,12.0,0.,12.0,0.,12.0,0.,12.0
1979-08-07 21:01:49.570 ,1,1,0.,12.0,0.,12.0,0.,12.0,0.,12.0
1979-08-07 21:02:01.570 ,1,0,0.,12.0,0.,12.0,0.,12.0,0.,12.0
1979-08-07 21:02:13.570 ,1,0,0.,12.0,0.,12.0,0.,12.0,0.,12.0
1979-08-07 21:02:25.570 ,2,1,0.,12.0,0.,12.0,0.,12.0,0.,12.0
1979-08-07 21:02:37.570 ,2,1,0.,12.0,0.,12.0,0.,12.0,0.,12.0
1979-08-07 21:02:49.570 ,2,0,0.,12.0,0.,12.0,0.,12.0,0.,12.0
1979-08-07 21:03:01.570 ,2,0,0.,12.0,0.,12.0,0.,12.0,0.,12.0
1979-08-07 21:03:13.570 ,3,1,0.,12.0,0.,12.0,0.,12.0,0.,12.0
1979-08-07 21:03:25.570 ,3,1,0.,12.0,0.,12.0,0.,12.0,0.,12.0
1979-08-07 21:03:37.570 ,3,0,0.,12.0,0.,12.0,0.,12.0,0.,12.0
1979-08-07 21:03:49.570 ,3,0,0.,12.0,0.,12.0,0.,12.0,0.,12.0
1979-08-07 21:04:01.570 ,4,1,0.,12.0,0.,12.0,0.,12.0,0.,12.0
1979-08-07 21:04:13.570 ,4,1,0.,12.0,0.,12.0,0.,12.0,0.,12.0
1979-08-07 21:04:25.570 ,4,0,0.,12.0,0.,12.0,0.,12.0,0.,12.0
1979-08-07 21:04:37.570 ,4,0,0.,12.0,0.,12.0,0.,12.0,0.,12.0
1979-08-07 21:04:49.570 ,5,1,0.,12.0,0.,12.0,0.,12.0,0.,12.0
1979-08-07 21:05:01.570 ,5,1,0.,12.0,0.,12.0,0.,12.0,0.,12.0
1979-08-07 21:05:13.570 ,5,0,0.,12.0,0.,12.0,0.,12.0,0.,12.0
1979-08-07 21:05:25.570 ,5,0,0.,12.0,0.,12.0,0.,12.0,0.,12.0
1979-08-07 21:05:37.570 ,6,1,0.,12.0,0.,12.0,0.,12.0,0.,12.0
1979-08-07 21:05:49.570 ,6,1,0.,12.0,0.,12.0,0.,12.0,0.,12.0
1979-08-07 21:06:01.570 ,6,0,0.,12.0,0.,12.0,0.,12.0,0.,12.0
1979-08-07 21:06:13.570 ,6,0,0.,12.0,0.,12.0,0.,12.0,0.,12.0
1979-08-07 21:06:25.570 ,7,0,0.,12.0,0.,12.0,0.,12.0,0.,12.0
1979-08-07 21:06:37.570 ,7,0,0.,12.0,0.,12.0,0.,12.0,0.,12.0
1979-08-07 21:06:49.570 ,0,0,0.,12.0,0.,12.0,0.,12.0,0.,12.0
1979-08-07 21:07:01.570 ,0,0,,0,,0,,0,,0
1979-08-07 21:16:20.760 ,0,0,,0,,0,,0,,0
1979-08-07 21:16:32.770 ,0,0,,0,,0,,0,,0
1979-08-07 21:16:25.570 ,7,1,0.,12.0,0.,12.0,0.,12.0,0.,12.0
1979-08-07 21:16:37.570 ,7,1,0.,12.0,0.,12.0,0.,12.0,0.,12.0
1979-08-07 21:16:49.570 ,4,1,0.,12.0,0.,12.0,0.,12.0,0.,12.0
1979-08-07 21:17:01.570 ,4,1,0.,12.0,0.,12.0,0.,12.0,0.,12.0
1979-08-07 21:17:13.560 ,0,1,0.,12.0,0.,12.0,0.,12.0,0.,12.0
1979-08-07 21:17:25.560 ,0,1,0.,12.0,0.,12.0,0.,12.0,0.,12.0
1979-08-07 21:17:37.560 ,0,0,0.,12.0,0.,12.0,0.,12.0,0.,12.0
1979-08-07 21:17:49.560 ,0,0,0.,12.0,0.,12.0,0.,12.0,0.,12.0
1979-08-07 21:18:01.560 ,0,0,0.,12.0,0.,12.0,0.,12.0,0.,12.0
1979-08-07 21:18:13.560 ,0,0,0.,12.0,0.,12.0,0.,12.0,0.,12.0
1979-08-07 21:18:25.560 ,5,1,0.,12.0,0.,12.0,0.,12.0,0.,12.0
1979-08-07 21:18:37.560 ,5,1,0.,12.0,0.,12.0,0.,12.0,0.,12.0
1979-08-07 21:18:49.560 ,5,0,0.,12.0,0.,12.0,0.,12.0,0.,12.0
1979-08-07 21:19:01.560 ,5,0,0.,12.0,0.,12.0,0.,12.0,0.,12.0
1979-08-07 21:19:13.560 ,4,1,0.,12.0,0.,12.0,0.,12.0,0.,12.0
1979-08-07 21:19:25.560 ,4,1,0.,12.0,0.,12.0,0.,12.0,0.,12.0
1979-08-07 21:19:37.560 ,4,0,0.,12.0,0.,12.0,0.,12.0,0.,12.0
1979-08-07 21:19:49.560 ,4,0,0.,12.0,0.,12.0,0.,12.0,0.,12.0
1979-08-07 21:20:01.560 ,3,1,0.,12.0,0.,12.0,0.,12.0,0.,12.0
1979-08-07 21:20:13.560 ,3,1,0.,12.0,0.,12.0,0.,12.0,0.,12.0
1979-08-07 21:20:25.560 ,3,0,0.,12.0,0.,12.0,0.,12.0,0.,12.0
1979-08-07 21:20:37.560 ,3,0,0.,12.0,0.,12.0,0.,12.0,0.,12.0
1979-08-07 21:20:49.560 ,2,1,0.,12.0,0.,12.0,0.,12.0,0.,12.0
1979-08-07 21:21:01.560 ,2,1,0.,12.0,0.,12.0,0.,12.0,0.,12.0
1979-08-07 21:21:13.560 ,2,0,0.,12.0,0.,12.0,0.,12.0,0.,12.0
1979-08-07 21:21:25.560 ,2,0,0.,12.0,0.,12.0,0.,12.0,0.,12.0
1979-08-07 21:21:37.560 ,1,1,0.,12.0,0.,12.0,0.,12.0,0.,12.0
1979-08-07 21:21:49.560 ,1,1,0.,12.0,0.,12.0,0.,12.0,0.,12.0
1979-08-07 21:22:01.560 ,1,0,0.,12.0,0.,12.0,0.,12.0,0.,12.0
1979-08-07 21:22:13.560 ,1,0,0.,12.0,0.,12.0,0.,12.0,0.,12.0
1979-08-07 21:22:25.560 ,0,1,0.,12.0,0.,12.0,0.,12.0,0.,12.0
1979-08-07 21:22:37.560 ,0,1,0.,12.0,0.,12.0,0.,12.0,0.,12.0
1979-08-07 21:22:49.560 ,0,0,0.,12.0,0.,12.0,0.,12.0,0.,12.0
1979-08-07 21:23:01.560 ,0,0,0.,12.0,0.,12.0,0.,12.0,0.,12.0
1979-08-07 21:23:13.560 ,0,1,0.,12.0,0.,12.0,0.,12.0,0.,12.0
1979-08-07 21:23:25.560 ,0,1,0.,12.0,0.,12.0,0.,12.0,0.,12.0
1979-08-07 21:23:37.560 ,0,0,0.,12.0,0.,12.0,0.,12.0,0.,12.0
1979-08-07 21:23:49.560 ,0,0,0.,12.0,0.,12.0,0.,12.0,0.,12.0
1979-08-07 21:24:01.560 ,1,1,0.,12.0,0.,12.0,0.,12.0,0.,12.0
1979-08-07 21:24:13.560 ,1,1,0.,12.0,0.,12.0,0.,12.0,0.,12.0
1979-08-07 21:24:25.560 ,1,0,0.,12.0,0.,12.0,0.,12.0,0.,12.0
1979-08-07 21:24:37.560 ,1,0,0.,12.0,0.,12.0,0.,12.0,0.,12.0
1979-08-07 21:24:49.560 ,2,1,0.,12.0,0.,12.0,0.,12.0,0.,12.0
1979-08-07 21:25:01.560 ,2,1,0.,12.0,0.,12.0,0.,12.0,0.,12.0
1979-08-07 21:25:13.560 ,2,0,0.,12.0,0.,12.0,0.,12.0,0.,12.0
1979-08-07 21:25:25.560 ,2,0,0.,12.0,0.,12.0,0.,12.0,0.,12.0
1979-08-07 21:25:37.560 ,3,1,0.,12.0,0.,12.0,0.,12.0,0.,12.0
1979-08-07 21:25:49.560 ,3,1,0.,12.0,0.,12.0,0.,12.0,0.,12.0
1979-08-07 21:26:01.560 ,3,0,0.,12.0,0.,12.0,0.,12.0,0.,12.0
1979-08-07 21:26:13.560 ,3,0,0.,12.0,0.,12.0,0.,12.0,0.,12.0
1979-08-07 21:26:25.560 ,4,1,0.,12.0,0.,12.0,0.,12.0,0.,12.0
1979-08-07 21:26:37.560 ,4,1,0.,12.0,0.,12.0,0.,12.0,0.,12.0
1979-08-07 21:26:49.560 ,4,0,0.,12.0,0.,12.0,0.,12.0,0.,12.0
1979-08-07 21:27:01.560 ,4,0,0.,12.0,0.,12.0,0.,12.0,0.,12.0
1979-08-07 21:27:13.560 ,5,1,0.,12.0,0.,12.0,0.,12.0,0.,12.0
1979-08-07 21:27:25.560 ,5,1,0.,12.0,0.,12.0,0.,12.0,0.,12.0
1979-08-07 21:27:37.560 ,5,0,0.,12.0,0.,12.0,0.,12.0,0.,12.0
1979-08-07 21:27:49.560 ,5,0,0.,12.0,0.,12.0,0.,12.0,0.,12.0
1979-08-07 21:28:01.560 ,6,1,0.,12.0,0.,12.0,0.,12.0,0.,12.0
1979-08-07 21:28:13.560 ,6,1,0.,12.0,0.,12.0,0.,12.0,0.,12.0
1979-08-07 21:28:25.560 ,6,0,0.,12.0,0.,12.0,0.,12.0,0.,12.0
1979-08-07 21:28:37.560 ,6,0,0.,12.0,0.,12.0,0.,12.0,0.,12.0
1979-08-07 21:28:49.560 ,7,1,0.,12.0,0.,12.0,0.,12.0,0.,12.0
1979-08-07 21:29:01.560 ,7,1,0.,12.0,0.,12.0,0.,12.0,0.,12.0
1979-08-07 21:29:13.560 ,7,0,0.,12.0,0.,12.0,0.,12.0,0.,12.0
1979-08-07 21:29:25.560 ,7,0,0.,12.0,0.,12.0,0.,12.0,0.,12.0
1979-08-07 21:30:25.560 ,0,0,0.,12.0,0.,12.0,0.,12.0,0.,12.0
1979-08-07 21:30:37.560 ,0,0,0.,12.0,0.,12.0,0.,12.0,0.,12.0
1979-08-07 21:30:49.560 ,0,0,0.,12.0,0.,12.0,0.,12.0,0.,12.0
1979-08-07 21:31:01.560 ,0,0,0.,12.0,0.,12.0,0.,12.0,0.,12.0
1979-08-07 21:31:13.560 ,5,1,0.,12.0,0.,12.0,0.,12.0,0.,12.0
1979-08-07 21:31:25.560 ,5,1,0.,12.0,0.,12.0,0.,12.0,0.,12.0
1979-08-07 21:31:37.560 ,5,0,0.,12.0,0.,12.0,0.,12.0,0.,12.0
1979-08-07 21:31:49.560 ,5,0,0.,12.0,0.,12.0,0.,12.0,0.,12.0
1979-08-07 21:32:01.560 ,4,1,0.,12.0,0.,12.0,0.,12.0,0.,12.0
1979-08-07 21:32:13.560 ,4,1,0.,12.0,0.,12.0,0.,12.0,0.,12.0
1979-08-07 21:32:25.560 ,4,0,0.,12.0,0.,12.0,0.,12.0,0.,12.0
1979-08-07 21:32:37.560 ,4,0,0.,12.0,0.,12.0,0.,12.0,0.,12.0
1979-08-07 21:32:49.560 ,3,1,0.,12.0,0.,12.0,0.,12.0,0.,12.0
1979-08-07 21:33:01.560 ,3,1,0.,12.0,0.,12.0,0.,12.0,0.,12.0
1979-08-07 21:33:13.560 ,3,0,0.,12.0,0.,12.0,0.,12.0,0.,12.0
1979-08-07 21:33:25.560 ,3,0,0.,12.0,0.,12.0,0.,12.0,0.,12.0
1979-08-07 21:33:37.560 ,2,1,0.,12.0,0.,12.0,0.,12.0,0.,12.0
1979-08-07 21:33:49.560 ,2,1,0.,12.0,0.,12.0,0.,12.0,0.,12.0
1979-08-07 21:34:01.560 ,2,0,0.,12.0,0.,12.0,0.,12.0,0.,12.0
1979-08-07 21:34:13.560 ,2,0,0.,12.0,0.,12.0,0.,12.0,0.,12.0
1979-08-07 21:34:25.560 ,1,1,0.,12.0,0.,12.0,0.,12.0,0.,12.0
1979-08-07 21:34:37.560 ,1,1,0.,12.0,0.,12.0,0.,12.0,0.,12.0
1979-08-07 21:34:49.560 ,1,0,0.,12.0,0.,12.0,0.,12.0,0.,12.0
1979-08-07 21:35:01.560 ,1,0,0.,12.0,0.,12.0,0.,12.0,0.,12.0
1979-08-07 21:35:13.560 ,0,1,0.,12.0,0.,12.0,0.,12.0,0.,12.0
1979-08-07 21:35:25.560 ,0,1,0.,12.0,0.,12.0,0.,12.0,0.,12.0
1979-08-07 21:35:37.560 ,0,0,0.,12.0,0.,12.0,0.,12.0,0.,12.0
1979-08-07 21:35:49.560 ,0,0,0.,12.0,0.,12.0,0.,12.0,0.,12.0
1979-08-07 21:36:01.560 ,0,1,0.,12.0,0.,12.0,0.,12.0,0.,12.0
1979-08-07 21:36:13.560 ,0,1,0.,12.0,0.,12.0,0.,12.0,0.,12.0
1979-08-07 21:36:25.560 ,0,0,0.,12.0,0.,12.0,0.,12.0,0.,12.0
1979-08-07 21:36:37.560 ,0,0,0.,12.0,0.,12.0,0.,12.0,0.,12.0
1979-08-07 21:36:49.560 ,1,1,0.,12.0,0.,12.0,0.,12.0,0.,12.0
1979-08-07 21:37:01.560 ,1,1,0.,12.0,0.,12.0,0.,12.0,0.,12.0
1979-08-07 21:37:13.560 ,1,0,0.,12.0,0.,12.0,0.,12.0,0.,12.0
1979-08-07 21:37:25.560 ,1,0,0.,12.0,1.,12.0,0.,12.0,0.,12.0
1979-08-07 21:37:37.560 ,2,1,0.,12.0,0.,12.0,0.,12.0,0.,12.0
1979-08-07 21:37:49.560 ,2,1,0.,12.0,0.,12.0,0.,12.0,0.,12.0
1979-08-07 21:38:01.560 ,2,0,0.,12.0,0.,12.0,0.,12.0,0.,12.0
1979-08-07 21:38:13.560 ,2,0,0.,12.0,0.,12.0,0.,12.0,0.,12.0
1979-08-07 21:38:25.560 ,3,1,0.,12.0,0.,12.0,0.,12.0,0.,12.0
1979-08-07 21:38:37.560 ,3,1,0.,12.0,0.,12.0,0.,12.0,0.,12.0
1979-08-07 21:38:49.560 ,3,0,0.,12.0,0.,12.0,0.,12.0,0.,12.0
1979-08-07 21:39:01.560 ,3,0,0.,12.0,0.,12.0,0.,12.0,0.,12.0
1979-08-07 21:39:13.560 ,4,1,0.,12.0,0.,12.0,0.,12.0,0.,12.0
1979-08-07 21:39:25.560 ,4,1,0.,12.0,0.,12.0,0.,12.0,0.,12.0
1979-08-07 21:39:37.560 ,4,0,0.,12.0,0.,12.0,0.,12.0,0.,12.0
1979-08-07 21:39:49.560 ,4,0,0.,12.0,0.,12.0,0.,12.0,0.,12.0
1979-08-07 21:40:01.560 ,5,1,0.,12.0,0.,12.0,0.,12.0,0.,12.0
1979-08-07 21:40:13.560 ,5,1,0.,12.0,0.,12.0,0.,12.0,0.,12.0
1979-08-07 21:40:25.560 ,5,0,0.,12.0,0.,12.0,0.,12.0,0.,12.0
1979-08-07 21:40:37.560 ,5,0,0.,12.0,0.,12.0,0.,12.0,0.,12.0
1979-08-07 21:40:49.560 ,6,1,0.,12.0,0.,12.0,0.,12.0,0.,12.0
1979-08-07 21:41:01.560 ,6,1,0.,12.0,0.,12.0,0.,12.0,0.,12.0
1979-08-07 21:41:13.560 ,6,0,0.,12.0,0.,12.0,0.,12.0,0.,12.0
1979-08-07 21:41:25.560 ,6,0,0.,12.0,0.,12.0,0.,12.0,0.,12.0
1979-08-07 21:41:37.560 ,7,1,0.,12.0,0.,12.0,0.,12.0,0.,12.0
1979-08-07 21:41:49.560 ,7,1,0.,12.0,0.,12.0,0.,12.0,0.,12.0
1979-08-07 21:42:01.560 ,7,0,0.,12.0,0.,12.0,0.,12.0,0.,12.0
1979-08-07 21:42:13.560 ,7,0,0.,12.0,0.,12.0,0.,12.0,0.,12.0
1979-08-07 21:42:25.560 ,7,1,0.,12.0,0.,12.0,0.,12.0,0.,12.0
1979-08-07 21:42:37.560 ,7,1,0.,12.0,0.,12.0,0.,12.0,0.,12.0
1979-08-07 21:42:49.560 ,7,0,0.,12.0,0.,12.0,0.,12.0,0.,12.0
1979-08-07 21:43:01.560 ,7,0,0.,12.0,0.,12.0,0.,12.0,0.,12.0
1979-08-07 21:43:13.560 ,6,1,0.,12.0,0.,12.0,0.,12.0,0.,12.0
1979-08-07 21:43:25.560 ,6,1,0.,12.0,0.,12.0,0.,12.0,0.,12.0
1979-08-07 21:43:37.560 ,6,0,0.,12.0,0.,12.0,0.,12.0,0.,12.0
1979-08-07 21:43:49.560 ,6,0,0.,12.0,0.,12.0,0.,12.0,0.,12.0
1979-08-07 21:44:01.560 ,5,1,0.,12.0,0.,12.0,0.,12.0,0.,12.0
1979-08-07 21:44:13.560 ,5,1,0.,12.0,0.,12.0,0.,12.0,0.,12.0
1979-08-07 21:44:25.560 ,5,0,0.,12.0,0.,12.0,0.,12.0,0.,12.0
1979-08-07 21:44:37.560 ,5,0,0.,12.0,0.,12.0,0.,12.0,0.,12.0
1979-08-07 21:44:49.560 ,4,1,0.,12.0,0.,12.0,0.,12.0,0.,12.0
1979-08-07 21:45:01.560 ,4,1,0.,12.0,0.,12.0,0.,12.0,0.,12.0
1979-08-07 21:45:13.560 ,4,0,0.,12.0,0.,12.0,0.,12.0,0.,12.0
1979-08-07 21:45:25.560 ,4,0,0.,12.0,0.,12.0,0.,12.0,0.,12.0
1979-08-07 21:45:37.560 ,3,1,0.,12.0,0.,12.0,0.,12.0,0.,12.0
1979-08-07 21:45:49.560 ,3,1,0.,12.0,0.,12.0,0.,12.0,0.,12.0
1979-08-07 21:46:01.560 ,3,0,0.,12.0,0.,12.0,0.,12.0,0.,12.0
1979-08-07 21:46:13.560 ,3,0,0.,12.0,0.,12.0,0.,12.0,0.,12.0
1979-08-07 21:46:25.560 ,2,1,0.,12.0,0.,12.0,0.,12.0,0.,12.0
1979-08-07 21:46:37.560 ,2,1,0.,12.0,0.,12.0,0.,12.0,0.,12.0
1979-08-07 21:46:49.560 ,2,0,0.,12.0,0.,12.0,0.,12.0,0.,12.0
1979-08-07 21:47:01.560 ,2,0,0.,12.0,0.,12.0,0.,12.0,0.,12.0
1979-08-07 21:47:13.560 ,1,1,0.,12.0,0.,12.0,0.,12.0,0.,12.0
1979-08-07 21:47:25.560 ,1,1,0.,12.0,0.,12.0,0.,12.0,0.,12.0
1979-08-07 21:47:37.560 ,1,0,0.,12.0,0.,12.0,0.,12.0,0.,12.0
1979-08-07 21:47:49.560 ,1,0,0.,12.0,0.,12.0,0.,12.0,0.,12.0
1979-08-07 21:48:01.560 ,0,1,0.,12.0,0.,12.0,0.,12.0,0.,12.0
1979-08-07 21:48:13.560 ,0,1,0.,12.0,0.,12.0,0.,12.0,0.,12.0
1979-08-07 21:48:25.560 ,0,0,0.,12.0,0.,12.0,0.,12.0,0.,12.0
1979-08-07 21:48:37.560 ,0,0,0.,12.0,0.,12.0,0.,12.0,0.,12.0
1979-08-07 21:48:49.560 ,0,1,0.,12.0,0.,12.0,0.,12.0,0.,12.0
1979-08-07 21:49:01.560 ,0,1,0.,12.0,0.,12.0,0.,12.0,0.,12.0
1979-08-07 21:49:13.560 ,0,0,0.,12.0,0.,12.0,0.,12.0,0.,12.0
1979-08-07 21:49:25.560 ,0,0,0.,12.0,0.,12.0,0.,12.0,0.,12.0
1979-08-07 21:49:37.560 ,1,1,0.,12.0,0.,12.0,0.,12.0,0.,12.0
1979-08-07 21:49:49.560 ,1,1,0.,12.0,0.,12.0,0.,12.0,0.,12.0
1979-08-07 21:50:01.560 ,1,0,0.,12.0,0.,12.0,0.,12.0,0.,12.0
1979-08-07 21:50:13.560 ,1,0,0.,12.0,0.,12.0,0.,12.0,0.,12.0
1979-08-07 21:50:25.560 ,2,1,0.,12.0,0.,12.0,0.,12.0,0.,12.0
1979-08-07 21:50:37.560 ,2,1,0.,12.0,0.,12.0,0.,12.0,0.,12.0
1979-08-07 21:50:49.560 ,2,0,0.,12.0,0.,12.0,0.,12.0,0.,12.0
1979-08-07 21:51:01.560 ,2,0,0.,12.0,0.,12.0,0.,12.0,0.,12.0
1979-08-07 21:51:13.560 ,3,1,0.,12.0,0.,12.0,0.,12.0,0.,12.0
1979-08-07 21:51:25.560 ,3,1,0.,12.0,0.,12.0,0.,12.0,0.,12.0
1979-08-07 21:51:37.560 ,3,0,0.,12.0,0.,12.0,0.,12.0,0.,12.0
1979-08-07 21:51:49.560 ,3,0,0.,12.0,0.,12.0,0.,12.0,0.,12.0
1979-08-07 21:52:01.560 ,4,1,0.,12.0,0.,12.0,0.,12.0,0.,12.0
1979-08-07 21:52:13.560 ,4,1,0.,12.0,0.,12.0,0.,12.0,0.,12.0
1979-08-07 21:52:25.560 ,4,0,0.,12.0,0.,12.0,0.,12.0,0.,12.0
1979-08-07 21:52:37.560 ,4,0,0.,12.0,0.,12.0,0.,12.0,0.,12.0
1979-08-07 21:52:49.560 ,5,1,0.,12.0,0.,12.0,0.,12.0,0.,12.0
1979-08-07 21:53:01.560 ,5,1,0.,12.0,0.,12.0,0.,12.0,0.,12.0
1979-08-07 21:53:13.560 ,5,0,0.,12.0,0.,12.0,0.,12.0,0.,12.0
1979-08-07 21:53:25.560 ,5,0,0.,12.0,0.,12.0,0.,12.0,0.,12.0
1979-08-07 21:53:37.560 ,6,1,0.,12.0,0.,12.0,0.,12.0,0.,12.0
1979-08-07 21:53:49.560 ,6,1,0.,12.0,0.,12.0,0.,12.0,0.,12.0
1979-08-07 21:54:01.560 ,6,0,0.,12.0,0.,12.0,0.,12.0,0.,12.0
1979-08-07 21:54:13.560 ,6,0,0.,12.0,0.,12.0,0.,12.0,0.,12.0
1979-08-07 21:54:25.560 ,7,0,0.,12.0,0.,12.0,0.,12.0,0.,12.0
1979-08-07 21:54:37.560 ,7,0,0.,12.0,0.,12.0,0.,12.0,0.,12.0
1979-08-07 21:54:49.560 ,7,0,0.,12.0,0.,12.0,0.,12.0,0.,12.0
1979-08-07 21:55:01.560 ,7,0,0.,12.0,0.,12.0,0.,12.0,0.,12.0
1979-08-07 21:55:13.560 ,4,1,0.,12.0,0.,12.0,0.,12.0,0.,12.0
1979-08-07 21:55:25.560 ,4,1,0.,12.0,0.,12.0,0.,12.0,0.,12.0
1979-08-07 21:55:37.560 ,0,1,0.,12.0,0.,12.0,0.,12.0,0.,12.0
1979-08-07 21:55:49.560 ,0,1,0.,12.0,0.,12.0,0.,12.0,0.,12.0
1979-08-07 21:56:01.560 ,3,1,0.,12.0,0.,12.0,0.,12.0,0.,12.0
1979-08-07 21:56:13.560 ,3,1,0.,12.0,0.,12.0,0.,12.0,0.,12.0
1979-08-07 21:56:25.560 ,7,1,0.,12.0,0.,12.0,0.,12.0,0.,12.0
1979-08-07 21:56:37.560 ,7,1,0.,12.0,0.,12.0,0.,12.0,0.,12.0
1979-08-07 21:56:49.560 ,4,1,0.,12.0,0.,12.0,0.,12.0,0.,12.0
1979-08-07 21:57:01.560 ,4,1,0.,12.0,0.,12.0,0.,12.0,0.,12.0
1979-08-07 21:57:13.560 ,0,1,0.,12.0,0.,12.0,0.,12.0,0.,12.0
1979-08-07 21:57:25.560 ,0,1,0.,12.0,0.,12.0,0.,12.0,0.,12.0
1979-08-07 21:57:37.560 ,3,1,0.,12.0,0.,12.0,0.,12.0,0.,12.0
1979-08-07 21:57:49.560 ,3,1,0.,12.0,0.,12.0,0.,12.0,0.,12.0
1979-08-07 21:58:01.560 ,7,1,0.,12.0,0.,12.0,0.,12.0,0.,12.0
1979-08-07 21:58:13.560 ,7,1,0.,12.0,0.,12.0,0.,12.0,0.,12.0
1979-08-07 21:58:25.560 ,4,1,0.,12.0,0.,12.0,0.,12.0,0.,12.0
1979-08-07 21:58:37.560 ,4,1,0.,12.0,0.,12.0,0.,12.0,0.,12.0
1979-08-07 21:58:49.560 ,0,1,0.,12.0,0.,12.0,0.,12.0,0.,12.0
1979-08-07 21:59:01.560 ,0,1,0.,12.0,0.,12.0,0.,12.0,0.,12.0
1979-08-07 21:59:13.560 ,3,1,0.,12.0,0.,12.0,0.,12.0,0.,12.0
1979-08-07 21:59:25.560 ,3,1,0.,12.0,0.,12.0,0.,12.0,0.,12.0
1979-08-07 21:59:37.560 ,7,1,0.,12.0,0.,12.0,0.,12.0,0.,12.0
1979-08-07 21:59:49.560 ,7,1,0.,12.0,0.,12.0,0.,12.0,0.,12.0
1979-08-07 22:00:01.560 ,4,1,0.,12.0,0.,12.0,0.,12.0,0.,12.0
1979-08-07 22:00:13.560 ,4,1,0.,12.0,0.,12.0,0.,12.0,0.,12.0
1979-08-07 22:00:25.560 ,0,1,0.,12.0,0.,12.0,0.,12.0,0.,12.0
1979-08-07 22:00:37.560 ,0,1,0.,12.0,0.,12.0,0.,12.0,0.,12.0
1979-08-07 22:00:49.560 ,3,1,0.,12.0,0.,12.0,0.,12.0,0.,12.0
1979-08-07 22:01:01.560 ,3,1,0.,12.0,0.,12.0,0.,12.0,0.,12.0
1979-08-07 22:01:13.560 ,7,1,0.,12.0,0.,12.0,0.,12.0,0.,12.0
1979-08-07 22:01:25.560 ,7,1,0.,12.0,0.,12.0,0.,12.0,0.,12.0
1979-08-07 22:01:37.560 ,4,1,0.,12.0,0.,12.0,0.,12.0,0.,12.0
1979-08-07 22:01:49.560 ,4,1,0.,12.0,0.,12.0,0.,12.0,0.,12.0
1979-08-07 22:02:01.560 ,0,1,0.,12.0,0.,12.0,0.,12.0,0.,12.0
1979-08-07 22:02:13.560 ,0,1,0.,12.0,0.,12.0,0.,12.0,0.,12.0
1979-08-07 22:02:25.560 ,3,1,0.,12.0,0.,12.0,0.,12.0,0.,12.0
1979-08-07 22:02:37.560 ,3,1,0.,12.0,0.,12.0,0.,12.0,0.,12.0
1979-08-07 22:02:49.560 ,7,1,0.,12.0,0.,12.0,0.,12.0,0.,12.0
1979-08-07 22:03:01.560 ,7,1,0.,12.0,0.,12.0,0.,12.0,0.,12.0
1979-08-07 22:03:13.560 ,4,1,0.,12.0,0.,12.0,0.,12.0,0.,12.0
1979-08-07 22:03:25.560 ,4,1,0.,12.0,0.,12.0,0.,12.0,0.,12.0
1979-08-07 22:03:37.560 ,0,1,0.,12.0,0.,12.0,0.,12.0,0.,12.0
1979-08-07 22:03:49.560 ,0,1,0.,12.0,0.,12.0,0.,12.0,0.,12.0
1979-08-07 22:04:01.560 ,3,1,0.,12.0,0.,12.0,0.,12.0,0.,12.0
1979-08-07 22:04:13.560 ,3,1,0.,12.0,0.,12.0,0.,12.0,0.,12.0
1979-08-07 22:04:25.560 ,7,1,0.,12.0,0.,12.0,0.,12.0,0.,12.0
1979-08-07 22:04:37.560 ,7,1,0.,12.0,0.,12.0,0.,12.0,0.,12.0
1979-08-07 22:04:49.560 ,4,1,0.,12.0,0.,12.0,0.,12.0,0.,12.0
1979-08-07 22:05:01.560 ,4,1,0.,12.0,0.,12.0,0.,12.0,0.,12.0
1979-08-07 22:05:13.560 ,0,1,0.,12.0,0.,12.0,0.,12.0,0.,12.0
1979-08-07 22:05:25.560 ,0,1,0.,12.0,0.,12.0,0.,12.0,0.,12.0
1979-08-07 22:05:37.560 ,0,0,0.,12.0,0.,12.0,0.,12.0,0.,12.0
1979-08-07 22:05:49.560 ,0,0,0.,12.0,0.,12.0,0.,12.0,0.,12.0
1979-08-07 22:06:01.560 ,0,0,0.,12.0,0.,12.0,0.,12.0,0.,12.0
1979-08-07 22:06:13.560 ,0,0,0.,12.0,0.,12.0,0.,12.0,0.,12.0
1979-08-07 22:06:25.560 ,5,1,0.,12.0,0.,12.0,0.,12.0,0.,12.0
1979-08-07 22:06:37.560 ,5,1,0.,12.0,0.,12.0,0.,12.0,0.,12.0
1979-08-07 22:06:49.560 ,5,0,0.,12.0,0.,12.0,0.,12.0,0.,12.0
1979-08-07 22:07:01.560 ,5,0,0.,12.0,0.,12.0,0.,12.0,0.,12.0
1979-08-07 22:07:13.560 ,4,1,0.,12.0,0.,12.0,0.,12.0,0.,12.0
1979-08-07 22:07:25.560 ,4,1,0.,12.0,0.,12.0,0.,12.0,0.,12.0
1979-08-07 22:07:37.560 ,4,0,0.,12.0,0.,12.0,0.,12.0,0.,12.0
1979-08-07 22:07:49.560 ,4,0,0.,12.0,0.,12.0,0.,12.0,0.,12.0
1979-08-07 22:08:01.560 ,3,1,0.,12.0,0.,12.0,0.,12.0,0.,12.0
1979-08-07 22:08:13.560 ,3,1,0.,12.0,0.,12.0,0.,12.0,0.,12.0
1979-08-07 22:08:25.560 ,3,0,0.,12.0,0.,12.0,0.,12.0,0.,12.0
1979-08-07 22:08:37.560 ,3,0,0.,12.0,0.,12.0,0.,12.0,0.,12.0
1979-08-07 22:08:49.560 ,2,1,0.,12.0,0.,12.0,0.,12.0,0.,12.0
1979-08-07 22:09:01.560 ,2,1,0.,12.0,0.,12.0,0.,12.0,0.,12.0
1979-08-07 22:09:13.560 ,2,0,0.,12.0,0.,12.0,0.,12.0,0.,12.0
1979-08-07 22:09:25.560 ,2,0,0.,12.0,0.,12.0,0.,12.0,0.,12.0
1979-08-07 22:09:37.560 ,1,1,0.,12.0,0.,12.0,0.,12.0,0.,12.0
1979-08-07 22:09:49.560 ,1,1,0.,12.0,0.,12.0,0.,12.0,0.,12.0
1979-08-07 22:10:01.560 ,1,0,0.,12.0,0.,12.0,0.,12.0,0.,12.0
1979-08-07 22:10:13.560 ,1,0,0.,12.0,0.,12.0,0.,12.0,0.,12.0
1979-08-07 22:10:25.560 ,0,1,0.,12.0,0.,12.0,0.,12.0,0.,12.0
1979-08-07 22:10:37.560 ,0,1,0.,12.0,0.,12.0,0.,12.0,0.,12.0
1979-08-07 22:10:49.560 ,0,0,0.,12.0,0.,12.0,0.,12.0,0.,12.0
1979-08-07 22:11:01.560 ,0,0,0.,12.0,0.,12.0,0.,12.0,0.,12.0
1979-08-07 22:11:13.560 ,0,1,0.,12.0,0.,12.0,0.,12.0,0.,12.0
1979-08-07 22:11:25.560 ,0,1,0.,12.0,0.,12.0,0.,12.0,0.,12.0
1979-08-07 22:11:37.560 ,0,0,0.,12.0,0.,12.0,0.,12.0,0.,12.0
1979-08-07 22:11:49.560 ,0,0,0.,12.0,0.,12.0,0.,12.0,0.,12.0
1979-08-07 22:12:01.560 ,1,1,0.,12.0,0.,12.0,0.,12.0,0.,12.0
1979-08-07 22:12:13.560 ,1,1,0.,12.0,0.,12.0,0.,12.0,0.,12.0
1979-08-07 22:12:25.560 ,1,0,0.,12.0,0.,12.0,0.,12.0,0.,12.0
1979-08-07 22:12:37.560 ,1,0,0.,12.0,0.,12.0,0.,12.0,0.,12.0
1979-08-07 22:12:49.560 ,2,1,0.,12.0,0.,12.0,0.,12.0,0.,12.0
1979-08-07 22:13:01.560 ,2,1,0.,12.0,0.,12.0,0.,12.0,0.,12.0
1979-08-07 22:13:13.560 ,2,0,0.,12.0,0.,12.0,0.,12.0,0.,12.0
1979-08-07 22:13:25.560 ,2,0,0.,12.0,0.,12.0,0.,12.0,0.,12.0
1979-08-07 22:13:37.560 ,3,1,0.,12.0,0.,12.0,0.,12.0,0.,12.0
1979-08-07 22:13:49.560 ,3,1,0.,12.0,0.,12.0,0.,12.0,0.,12.0
1979-08-07 22:14:01.560 ,3,0,0.,12.0,0.,12.0,0.,12.0,0.,12.0
1979-08-07 22:14:13.560 ,3,0,0.,12.0,0.,12.0,0.,12.0,0.,12.0
1979-08-07 22:14:25.560 ,4,1,0.,12.0,0.,12.0,0.,12.0,0.,12.0
1979-08-07 22:14:37.560 ,4,1,0.,12.0,0.,12.0,0.,12.0,0.,12.0
1979-08-07 22:14:49.560 ,4,0,0.,12.0,0.,12.0,0.,12.0,0.,12.0
1979-08-07 22:15:01.560 ,4,0,0.,12.0,0.,12.0,0.,12.0,0.,12.0
1979-08-07 22:15:13.560 ,5,1,0.,12.0,0.,12.0,0.,12.0,0.,12.0
1979-08-07 22:15:25.560 ,5,1,0.,12.0,0.,12.0,0.,12.0,0.,12.0
1979-08-07 22:15:37.560 ,5,0,0.,12.0,0.,12.0,0.,12.0,0.,12.0
1979-08-07 22:15:49.560 ,5,0,0.,12.0,0.,12.0,0.,12.0,0.,12.0
1979-08-07 22:16:01.560 ,6,1,0.,12.0,0.,12.0,0.,12.0,0.,12.0
1979-08-07 22:16:13.560 ,6,1,0.,12.0,0.,12.0,0.,12.0,0.,12.0
1979-08-07 22:16:25.560 ,6,0,0.,12.0,0.,12.0,0.,12.0,0.,12.0
1979-08-07 22:16:37.560 ,6,0,0.,12.0,0.,12.0,0.,12.0,0.,12.0
1979-08-07 22:16:49.560 ,7,1,0.,12.0,0.,12.0,0.,12.0,0.,12.0
1979-08-07 22:17:01.560 ,7,1,0.,12.0,0.,12.0,0.,12.0,0.,12.0
1979-08-07 22:17:13.560 ,7,0,0.,12.0,0.,12.0,0.,12.0,0.,12.0
1979-08-07 22:17:25.560 ,7,0,0.,12.0,0.,12.0,0.,12.0,0.,12.0
1979-08-07 22:17:37.560 ,7,1,0.,12.0,0.,12.0,0.,12.0,0.,12.0
1979-08-07 22:17:49.560 ,7,1,0.,12.0,0.,12.0,0.,12.0,0.,12.0
1979-08-07 22:18:01.560 ,7,0,0.,12.0,0.,12.0,0.,12.0,0.,12.0
1979-08-07 22:18:13.560 ,7,0,0.,12.0,0.,12.0,0.,12.0,0.,12.0
1979-08-07 22:18:25.560 ,6,1,0.,12.0,0.,12.0,0.,12.0,0.,12.0
1979-08-07 22:18:37.560 ,6,1,0.,12.0,0.,12.0,0.,12.0,0.,12.0
1979-08-07 22:18:49.560 ,6,0,0.,12.0,0.,12.0,0.,12.0,0.,12.0
1979-08-07 22:19:01.560 ,6,0,0.,12.0,0.,12.0,0.,12.0,0.,12.0
1979-08-07 22:19:13.560 ,5,1,0.,12.0,0.,12.0,0.,12.0,0.,12.0
1979-08-07 22:19:25.560 ,5,1,0.,12.0,0.,12.0,0.,12.0,0.,12.0
1979-08-07 22:19:37.560 ,5,0,0.,12.0,0.,12.0,0.,12.0,0.,12.0
1979-08-07 22:19:49.560 ,5,0,0.,12.0,0.,12.0,0.,12.0,0.,12.0
1979-08-07 22:20:01.560 ,4,1,0.,12.0,0.,12.0,0.,12.0,0.,12.0
1979-08-07 22:20:13.560 ,4,1,0.,12.0,0.,12.0,0.,12.0,0.,12.0
1979-08-07 22:20:25.560 ,4,0,0.,12.0,0.,12.0,0.,12.0,0.,12.0
1979-08-07 22:20:37.560 ,4,0,0.,12.0,0.,12.0,0.,12.0,0.,12.0
1979-08-07 22:20:49.560 ,3,1,0.,12.0,0.,12.0,0.,12.0,0.,12.0
1979-08-07 22:21:01.560 ,3,1,0.,12.0,0.,12.0,0.,12.0,0.,12.0
1979-08-07 22:21:13.560 ,3,0,0.,12.0,0.,12.0,0.,12.0,0.,12.0
1979-08-07 22:21:25.560 ,3,0,0.,12.0,0.,12.0,0.,12.0,0.,12.0
1979-08-07 22:21:37.560 ,2,1,0.,12.0,0.,12.0,0.,12.0,0.,12.0
1979-08-07 22:21:49.560 ,2,1,0.,12.0,0.,12.0,0.,12.0,0.,12.0
1979-08-07 22:22:01.560 ,2,0,0.,12.0,0.,12.0,0.,12.0,0.,12.0
1979-08-07 22:22:13.560 ,2,0,0.,12.0,0.,12.0,0.,12.0,0.,12.0
1979-08-07 22:22:25.560 ,1,1,0.,12.0,0.,12.0,0.,12.0,0.,12.0
1979-08-07 22:22:37.560 ,1,1,0.,12.0,0.,12.0,0.,12.0,0.,12.0
1979-08-07 22:22:49.560 ,1,0,0.,12.0,0.,12.0,0.,12.0,0.,12.0
1979-08-07 22:23:01.560 ,1,0,0.,12.0,0.,12.0,0.,12.0,0.,12.0
1979-08-07 22:23:13.560 ,0,1,0.,12.0,0.,12.0,0.,12.0,0.,12.0
1979-08-07 22:23:25.560 ,0,1,0.,12.0,0.,12.0,0.,12.0,0.,12.0
1979-08-07 22:23:37.560 ,0,0,0.,12.0,0.,12.0,0.,12.0,0.,12.0
1979-08-07 22:23:49.560 ,0,0,0.,12.0,0.,12.0,0.,12.0,0.,12.0
1979-08-07 22:24:01.560 ,0,1,0.,12.0,0.,12.0,0.,12.0,0.,12.0
1979-08-07 22:24:13.560 ,0,1,0.,12.0,0.,12.0,0.,12.0,0.,12.0
1979-08-07 22:24:25.560 ,0,0,0.,12.0,0.,12.0,0.,12.0,0.,12.0
1979-08-07 22:24:37.560 ,0,0,0.,12.0,0.,12.0,0.,12.0,0.,12.0
1979-08-07 22:24:49.560 ,1,1,0.,12.0,0.,12.0,0.,12.0,0.,12.0
1979-08-07 22:25:01.560 ,1,1,0.,12.0,0.,12.0,0.,12.0,0.,12.0
1979-08-07 22:25:13.560 ,1,0,0.,12.0,0.,12.0,0.,12.0,0.,12.0
1979-08-07 22:25:25.560 ,1,0,0.,12.0,0.,12.0,0.,12.0,0.,12.0
1979-08-07 22:25:37.560 ,2,1,0.,12.0,0.,12.0,0.,12.0,0.,12.0
1979-08-07 22:25:49.560 ,2,1,0.,12.0,0.,12.0,0.,12.0,0.,12.0
1979-08-07 22:26:01.560 ,2,0,0.,12.0,0.,12.0,0.,12.0,0.,12.0
1979-08-07 22:26:13.560 ,2,0,0.,12.0,0.,12.0,0.,12.0,0.,12.0
1979-08-07 22:26:25.560 ,3,1,0.,12.0,0.,12.0,0.,12.0,0.,12.0
1979-08-07 22:26:37.560 ,3,1,0.,12.0,0.,12.0,0.,12.0,0.,12.0
1979-08-07 22:26:49.560 ,3,0,0.,12.0,0.,12.0,0.,12.0,0.,12.0
1979-08-07 22:27:01.560 ,3,0,0.,12.0,0.,12.0,0.,12.0,0.,12.0
1979-08-07 22:27:13.560 ,4,1,0.,12.0,0.,12.0,0.,12.0,0.,12.0